Meadow Lake, CO

11:24 PM MDT on March 25, 2017 (GMT -0600)
Meadow Lake

Weather History for KFLY - November, 2012

Change the Weather History Date:

Tuesday, November 6, 2012

  Actual Average (KCOS) Record (KCOS)
Temperature  
Mean Temperature 50 °F -  
Max Temperature 62 °F 55 °F 76 °F (1980)
Min Temperature 37 °F 28 °F 9 °F (1993)
Degree Days  
Heating Degree Days 16    
Moisture  
Dew Point 24 °F    
Average Humidity 39    
Maximum Humidity 66    
Minimum Humidity 22    
Precipitation  
Precipitation 0.00 in - - ()
Sea Level Pressure  
Sea Level Pressure 30.30 in    
Wind  
Wind Speed 9 mph (West)    
Max Wind Speed 15 mph    
Max Gust Speed 21 mph    
Visibility 10 miles    
Events      
Averages and records for this station are not official NWS values.
T = Trace of Precipitation, MM = Missing Value Source: NWS Daily Summary

Daily Weather History Graph

Daily Weather History Graph

Search for Another Location

Airport or City:

Trip Planner

Search our weather history database for the weather conditions in past years. The results will help you decide how hot, cold, wet, or windy it might be!

Date:

Astronomy

Nov. 06, 2012 Rise Set
Actual Time 6:31 AM MST 4:51 PM MST
Civil Twilight 6:03 AM MST 5:19 PM MST
Nautical Twilight 5:31 AM MST 5:51 PM MST
Astronomical Twilight 5:00 AM MST 6:22 PM MST
Moon 11:32 PM MST (11/6) 12:25 PM MST (11/6)
Length of Visible Light 11h 16m
Length of Day
10h 20m
Waning Gibbous, 52% of the Moon is Illuminated
Nov 6
Waning Gibbous
Nov 6
Last Quarter
Nov 13
New
Nov 20
First Quarter
Nov 28
Full

Hourly Weather History & Observations

Time (MST) Temp. Windchill Dew Point Humidity Pressure Visibility Wind Dir Wind Speed Gust Speed Precip Events Conditions
12:12 AM 43.2 °F 38.4 °F 19.6 °F 39% 30.26 in 10.0 mi NW 8.1 mph - N/A   Clear
12:32 AM 42.3 °F 36.8 °F 20.3 °F 42% 30.26 in 10.0 mi NW 9.2 mph - N/A   Clear
12:52 AM 42.8 °F 38.0 °F 20.1 °F 40% 30.26 in 10.0 mi NW 8.1 mph - N/A   Clear
1:12 AM 43.2 °F 37.0 °F 19.9 °F 40% 30.27 in 10.0 mi WNW 11.5 mph 16.1 mph N/A   Clear
1:32 AM 42.6 °F 37.8 °F 19.6 °F 40% 30.27 in 10.0 mi NW 8.1 mph - N/A   Clear
1:52 AM 42.8 °F 38.0 °F 20.1 °F 40% 30.28 in 10.0 mi NW 8.1 mph - N/A   Clear
2:12 AM 42.3 °F 36.8 °F 19.9 °F 41% 30.28 in 10.0 mi NW 9.2 mph - N/A   Clear
2:32 AM 42.3 °F 36.8 °F 19.8 °F 41% 30.27 in 10.0 mi NW 9.2 mph - N/A   Clear
2:52 AM 42.6 °F 37.8 °F 20.1 °F 41% 30.27 in 10.0 mi NNW 8.1 mph - N/A   Clear
3:12 AM 41.5 °F 35.9 °F 20.1 °F 42% 30.27 in 10.0 mi NW 9.2 mph - N/A   Clear
3:32 AM 42.3 °F 37.3 °F 20.3 °F 42% 30.27 in 10.0 mi NNW 8.1 mph - N/A   Clear
3:52 AM 43.7 °F 38.6 °F 19.9 °F 39% 30.27 in 10.0 mi NNW 9.2 mph - N/A   Clear
4:12 AM 44.8 °F 40.4 °F 19.9 °F 37% 30.28 in 10.0 mi NNW 8.1 mph - N/A   Clear
4:32 AM 44.8 °F 39.9 °F 20.1 °F 37% 30.28 in 10.0 mi NNW 9.2 mph - N/A   Clear
4:52 AM 44.4 °F 40.0 °F 20.3 °F 38% 30.28 in 10.0 mi NNW 8.1 mph - N/A   Clear
5:32 AM 46.8 °F - 20.5 °F 35% 30.29 in 10.0 mi North 11.5 mph 17.3 mph N/A   Clear
5:52 AM 46.9 °F - 20.8 °F 36% 30.30 in 10.0 mi NNW 9.2 mph - N/A   Clear
6:12 AM 46.4 °F 42.9 °F 21.7 °F 38% 30.30 in 10.0 mi NNW 6.9 mph 16.1 mph N/A   Clear
6:32 AM 42.4 °F 37.0 °F 21.7 °F 44% 30.30 in 10.0 mi West 9.2 mph - N/A   Clear
6:52 AM 41.9 °F 36.3 °F 22.1 °F 45% 30.32 in 10.0 mi NW 9.2 mph - N/A   Clear
7:12 AM 46.2 °F 42.7 °F 22.5 °F 39% 30.32 in 10.0 mi NNW 6.9 mph - N/A   Clear
7:32 AM 52.5 °F - 21.7 °F 30% 30.32 in 10.0 mi NNW 10.4 mph - N/A   Clear
7:52 AM 54.1 °F - 22.1 °F 29% 30.34 in 10.0 mi North 9.2 mph - N/A   Clear
8:12 AM 56.3 °F - 22.6 °F 27% 30.34 in 10.0 mi WSW 3.5 mph - N/A   Clear
8:32 AM 57.2 °F - 22.8 °F 27% 30.35 in 10.0 mi West 3.5 mph - N/A   Clear
8:52 AM 59.4 °F - 23.4 °F 25% 30.35 in 10.0 mi NW 3.5 mph - N/A   Clear
9:12 AM 59.5 °F - 23.0 °F 25% 30.36 in 10.0 mi North 8.1 mph - N/A   Clear
9:32 AM 60.3 °F - 23.2 °F 24% 30.36 in 10.0 mi NNW 5.8 mph - N/A   Clear
9:52 AM 60.3 °F - 23.0 °F 24% 30.36 in 10.0 mi NNW 5.8 mph - N/A   Clear
10:12 AM 60.8 °F - 21.6 °F 22% 30.36 in 10.0 mi SW 10.4 mph - N/A   Clear
10:32 AM 60.4 °F - 21.4 °F 22% 30.36 in 10.0 mi SW 12.7 mph - N/A   Clear
10:52 AM 61.5 °F - 22.3 °F 22% 30.35 in 10.0 mi SW 10.4 mph - N/A   Clear
11:12 AM 62.2 °F - 22.8 °F 22% 30.34 in 10.0 mi SSW 12.7 mph 18.4 mph N/A   Clear
11:32 AM 62.1 °F - 22.8 °F 22% 30.33 in 10.0 mi SSW 11.5 mph 16.1 mph N/A   Clear
11:52 AM 61.7 °F - 23.4 °F 23% 30.32 in 10.0 mi SSW 13.8 mph 20.7 mph N/A   Clear
12:12 PM 62.2 °F - 23.5 °F 23% 30.31 in 10.0 mi SSW 11.5 mph - N/A   Clear
12:32 PM 62.1 °F - 23.9 °F 23% 30.30 in 10.0 mi SW 11.5 mph 19.6 mph N/A   Clear
12:52 PM 61.9 °F - 23.9 °F 23% 30.30 in 10.0 mi SSW 12.7 mph 20.7 mph N/A   Clear
1:12 PM 61.3 °F - 24.3 °F 24% 30.29 in 10.0 mi South 13.8 mph 20.7 mph N/A   Clear
1:32 PM 61.3 °F - 24.6 °F 25% 30.29 in 10.0 mi South 10.4 mph 20.7 mph N/A   Clear
1:52 PM 61.0 °F - 24.3 °F 25% 30.28 in 10.0 mi South 15.0 mph 19.6 mph N/A   Clear
2:12 PM 60.8 °F - 24.8 °F 25% 30.28 in 10.0 mi South 10.4 mph 17.3 mph N/A   Clear
2:32 PM 60.4 °F - 25.0 °F 26% 30.28 in 10.0 mi South 11.5 mph 20.7 mph N/A   Clear
2:52 PM 59.9 °F - 25.2 °F 26% 30.28 in 10.0 mi South 11.5 mph 17.3 mph N/A   Clear
3:12 PM 59.4 °F - 25.0 °F 27% 30.28 in 10.0 mi South 9.2 mph 16.1 mph N/A   Clear
3:32 PM 58.5 °F - 25.3 °F 28% 30.30 in 10.0 mi South 12.7 mph 17.3 mph N/A   Clear
3:52 PM 57.4 °F - 25.7 °F 30% 30.30 in 10.0 mi South 11.5 mph 16.1 mph N/A   Clear
4:12 PM 55.6 °F - 25.7 °F 32% 30.30 in 10.0 mi South 12.7 mph 16.1 mph N/A   Clear
4:32 PM 52.5 °F - 25.3 °F 35% 30.29 in 10.0 mi South 13.8 mph - N/A   Clear
4:52 PM 49.1 °F - 25.3 °F 40% 30.29 in 10.0 mi SSW 6.9 mph - N/A   Clear
5:12 PM 46.6 °F - 25.0 °F 43% 30.30 in 10.0 mi WSW 3.5 mph - N/A   Clear
5:32 PM 45.7 °F 42.7 °F 25.7 °F 46% 30.30 in 10.0 mi WSW 5.8 mph - N/A   Clear
5:51 PM 44.8 °F 42.4 °F 25.7 °F 47% 30.31 in 10.0 mi WSW 4.6 mph - N/A   Clear
6:12 PM 41.4 °F 35.7 °F 25.2 °F 53% 30.30 in 10.0 mi West 9.2 mph - N/A   Clear
6:31 PM 40.5 °F 34.1 °F 25.0 °F 54% 30.30 in 10.0 mi West 10.4 mph - N/A   Clear
6:52 PM 39.6 °F 32.1 °F 24.8 °F 56% 30.30 in 10.0 mi West 12.7 mph - N/A   Clear
7:12 PM 38.3 °F 30.9 °F 25.0 °F 59% 30.32 in 10.0 mi West 11.5 mph - N/A   Clear
7:31 PM 38.7 °F 35.2 °F 25.2 °F 58% 30.31 in 10.0 mi West 4.6 mph - N/A   Clear
7:51 PM 37.9 °F 33.5 °F 25.5 °F 61% 30.31 in 10.0 mi West 5.8 mph - N/A   Clear
8:12 PM 37.6 °F 32.3 °F 25.5 °F 62% 30.31 in 10.0 mi West 6.9 mph - N/A   Clear
8:32 PM 37.9 °F 33.5 °F 26.1 °F 62% 30.31 in 10.0 mi West 5.8 mph - N/A   Clear
8:52 PM 38.1 °F 31.2 °F 26.2 °F 62% 30.31 in 10.0 mi West 10.4 mph - N/A   Clear
9:12 PM 38.3 °F 33.2 °F 27.0 °F 64% 30.31 in 10.0 mi WNW 6.9 mph - N/A   Clear
9:32 PM 40.5 °F 35.1 °F 27.3 °F 59% 30.30 in 10.0 mi West 8.1 mph - N/A   Clear
9:52 PM 40.5 °F 34.1 °F 27.7 °F 60% 30.30 in 10.0 mi West 10.4 mph - N/A   Clear
10:12 PM 39.4 °F 33.8 °F 27.0 °F 61% 30.29 in 10.0 mi West 8.1 mph - N/A   Clear
10:32 PM 42.8 °F 38.0 °F 28.0 °F 56% 30.29 in 10.0 mi West 8.1 mph - N/A   Clear
10:52 PM 41.2 °F 36.0 °F 27.5 °F 58% 30.29 in 10.0 mi West 8.1 mph - N/A   Clear
11:12 PM 41.4 °F 36.2 °F 27.9 °F 59% 30.29 in 10.0 mi West 8.1 mph - N/A   Clear
11:32 PM 41.0 °F 35.8 °F 27.5 °F 59% 30.29 in 10.0 mi West 8.1 mph - N/A   Clear
11:52 PM 37.0 °F 31.6 °F 26.6 °F 66% 30.28 in 10.0 mi West 6.9 mph - N/A   Clear